Showing default

VANGUARD 2, 11

Orbit data source: Space-Track

VANGUARD 2, 11 is a payload satellite owned by NASA BSC (US) in LEO that was launched on Tue, 17 Feb 1959 UTC via a VANGUARD launch vehicle from the Air Force Eastern Test Range (AFETR). Payloads include a variety of satellites, spacecraft, and rockets equipped with specific instruments for various scientific and technological missions. These include communications satellites like Starlink; space stations such as the ISS; scientific satellites like the Hubble; Earth observation satellites from companies like Planet Labs, Umbra, and HawkEye 360; GPS; miniature CubeSats for education and research; and military/defense satellites.

Loading next visibility...
VANGUARD 2 details
Identifier
11, 1959-001A
Orbit
LEO
Last TLE update19 hours ago
Origin
Flag of USNASA BSC (US)
ManufacturerNRL
MissionCivil Imaging
Bus & MotorNRL 20", Unknown motor
Mass10 kg wet, 10 kg dry
Launch date (UTC)
1959-02-17 (66 years ago)
Launch vehicle
VANGUARD
Launch site
Air Force Eastern Test Range (AFETR)
Object type
Payload
Rocket body
Debris
Shape & HBRSphere, 0.51 m
Radar Cross Section0.204 m², Medium (>0.1 m² and < 1m²)

Expand to show TLE details & history

TLE from 19 hours ago
0 VANGUARD 2
1 00011U 59001A   25017.92624285  .00001477  00000-0  78138-3 0  9999
2 00011  32.8651 233.7257 1451686   6.8426 354.9878 11.89084865474071
Epoch: 2025-01-17T22:13Z
Definitive object data (Epoch: 2025-01-17T22:13:47.382Z)
Latitude-0°
Longitude142.6954°
Altitude558.252 km
Speed8.112 km/s
True Right ascension15h 34m 54s
True Declination0° 00' 00"
Sunlit
Object was in daylight at TLE epoch
Visualization TLE readout
Latitude31.9879°
Longitude-114.40209°
Altitude1,602.559 km
Speed7.128 km/s
Apparent Right ascension01h 14m 03s
Apparent Declination1° 08' 12"
Sunlit
Object is in daylight
Visualization observer readout
Local Sidereal Time17:43:42
Azimuth74.175° E
Elevation-16.37°
Doppler factor1
Orbital elements
Apogee altitude2,910.757 km
Perigee altitude555.723 km
Semi-major axis8,111.377 km
Eccentricity0.1451686
Inclination32.8651°
RAAN233.7257°
Arg. of periapsis6.8426°
True anomaly353.21757°
Mean anomaly354.9878°
Eccentric anomaly354.13836°
Mean motion2.97099 °/min
BSTAR0.00078138
Orbital period121.17 mins
Loading maneuver chart data...
Loading historical data...
Loading historical data...
Loading historical data...
Loading historical data...
Loading historical data...
Loading historical data...
Loading historical data...

VANGUARD 2 Visibility forecast

Observer location: undefined°, undefined

Span
Click to sort rows by Start time (UTC) header in descending order
Start Az.
Max El. time (UTC)
Max El. Az.
Max El.
End time (UTC)
End Az.
11 mins2025-01-18 18:37:47.242Z218.265° SW2025-01-18 18:41:47.242Z158.973° S30.494°2025-01-18 18:48:47.242Z96.935° ESE
16 mins2025-01-18 20:44:47.242Z248.781° W2025-01-18 20:49:47.242Z183.266° SSW39.109°2025-01-18 21:00:47.242Z106.825° ESE
20 mins2025-01-18 22:51:47.242Z260.279° W2025-01-18 22:59:47.242Z190.546° SSW34.908°2025-01-18 23:11:47.242Z132.4° SE
19 mins2025-01-19 01:01:47.242Z251.503° W2025-01-19 01:09:47.242Z207.945° SW22.632°2025-01-19 01:20:47.242Z165.202° S
|